Hourly Data Report for July 15, 2021

DRYDEN REGIONAL
ONTARIO
Current Station Operator: NAVCAN

49°49'39.000" N
92°44'39.000" W
412.70 m
6032125
71527
YHD

Download Data

Hourly Data (July 2021)
Hourly Data Report for July 15, 2021
TIME
LST
Temp Definition
°C
Dew Point Definition
°C
Rel Hum Definition
%
Precip. Amount Definition
mm

Wind Dir Definition
10's deg

Wind Spd Definition
km/h
Visibility Definition
km
Stn Press Definition
kPa
Hmdx Definition


Wind Chill Definition


Weather Definition


00:00 15.8 12.0 78 0.0 20 5 6.4 96.80     Haze
01:00 15.4 14.2 92 0.0   0 6.4 96.79     Fog
02:00 14.9 12.8 87 0.0 6 4 9.7 96.78     Fog
03:00 14.1 13.0 93 0.0 6 4 8.1 96.78     Fog
04:00 13.8 12.2 90 0.0 LegendMM 4 9.7 96.78     Fog
05:00 14.1 13.1 94 0.0   0 11.3 96.79     LegendNANA
06:00 14.5 13.3 92 0.0 LegendMM 4 11.3 96.82     LegendNANA
07:00 17.0 14.7 86 0.0 18 8 14.5 96.83     LegendNANA
08:00 19.0 13.1 68 0.0 20 11 16.1 96.82     LegendNANA
09:00 21.1 12.8 59 0.0 22 9 16.1 96.82     LegendNANA
10:00 23.0 12.4 51 0.0 LegendMM 8 12.9 96.81 25   LegendNANA
11:00 24.1 11.1 43 0.0 23 9 12.9 96.79 26   LegendNANA
12:00 24.6 10.2 40 0.0 28 9 16.1 96.75 26   LegendNANA
13:00 25.1 9.4 37 0.0 26 13 16.1 96.71 26   LegendNANA
14:00 26.5 7.7 30 0.0 29 15 16.1 96.69 27   LegendNANA
15:00 26.3 7.6 30 0.0 30 9 16.1 96.66 27   LegendNANA
16:00 26.7 7.5 29 0.0 26 13 16.1 96.61 27   LegendNANA
17:00 26.9 8.1 30 0.0 22 11 16.1 96.58 27   LegendNANA
18:00 26.3 8.6 32 0.0 18 15 16.1 96.55 27   LegendNANA
19:00 25.2 10.1 38 0.0 18 11 16.1 96.55 27   LegendNANA
20:00 23.2 11.1 46 0.0 18 13 16.1 96.54 25   LegendNANA
21:00 22.1 11.3 50 0.0 18 11 16.1 96.58     LegendNANA
22:00 21.3 11.4 53 0.0 17 13 16.1 96.58     LegendNANA
23:00 20.6 11.6 56 0.0 17 13 16.1 96.56     LegendNANA

Notes on Data Quality.

Legend

  • E = Estimated
  • M = Missing
  • NA = Not Available*
  • [empty] = Indicates an unobserved value
Date modified: